Location: ????? ???????
(25.7275°N, 32.5929°E)
Time: 12:08:45
(UTC+00:00)

CSL-04 Debris - Pass Details

Date: 02 March 2021
Orbit: 826 x 848 km, 98.9° (Epoch: 15 April)

Event Time Altitude Azimuth Distance (km) Brightness Sun altitude
Rises 16:51:27 0° 156° (SSE) 3,360 7.1 -14.2°
Reaches altitude 10° 16:53:49 10° 152° (SSE) 2,431 6.3 -14.7°
Maximum altitude 16:59:06 58° 75° (ENE) 967 4.2 -15.9°
Drops below altitude 10° 17:04:26 10° 357° (N) 2,455 6.7 -17.1°
Sets 17:06:49 0° 353° (N) 3,396 7.4 -17.6°
